Regional Weather Roundup
Issued by NWS

Home | Current Version | Previous Version | Graphics & Text | Print | Product List | Glossary On
Versions: 1 2 3 4 5 6 7 8 9 10 11 12 13 14 15 16 17 18 19 20 21 22 23 24 25 26 27 28 29 30 31 32 33 34 35 36 37 38 39 40 41 42 43 44 45 46 47 48 49 50
000
ASUS43 KOAX 260110
RWRNE

WEATHER ROUNDUP FOR NEBRASKA
NATIONAL WEATHER SERVICE OMAHA NE
800 PM CDT THU MAY 25 2017

NOTES: SATELLITE DATA IS BEING USED TO AUGMENT CLOUD COVER ABOVE
       12000 FEET.
       "FAIR" INDICATES FEW OR NO CLOUDS BELOW 12,000 FEET WITH NO
       SIGNIFICANT WEATHER AND/OR OBSTRUCTIONS TO VISIBILITY.

  * THESE STATIONS DO NOT REPORT WEATHER SUCH AS RAIN...SNOW OR FOG.

NEZ001>004-019>022-054>056-260200-
NEBRASKA PANHANDLE

CITY           SKY/WX    TMP DP  RH WIND       PRES   REMARKS
SCOTTSBLUFF    CLOUDY    62  48  60 E7        29.69R
ALLIANCE       CLOUDY    62  53  72 E5        29.66R
CHADRON        MOSUNNY   64  37  36 NW8       29.65R
GORDON         CLOUDY    69  46  43 NW3       29.64R
KIMBALL        PTSUNNY   57  50  77 NW9       29.73R
SIDNEY         CLOUDY    59  50  72 NW10      29.73R
$$

NEZ057>060-069>072-079>082-260200-
SOUTHWEST NEBRASKA

CITY           SKY/WX    TMP DP  RH WIND       PRES   REMARKS
NORTH PLATTE   CLOUDY    64  55  72 NW3       29.60R
IMPERIAL       CLOUDY    60  52  74 S3        29.62F
LEXINGTON      CLOUDY    69  57  66 NE3       29.56F
MCCOOK         CLOUDY    65  55  70 W21G30    29.64R
OGALLALA       CLOUDY    62  58  87 CALM      29.63R
$$

NEZ005>010-023>029-035>040-094-260200-
NORTH CENTRAL NEBRASKA

CITY           SKY/WX    TMP DP  RH WIND       PRES   REMARKS
VALENTINE      CLOUDY    69  45  41 S6        29.62R
AINSWORTH      CLOUDY    67  50  54 NW3       29.64R
BROKEN BOW     CLOUDY    67  56  67 E9        29.56F
O`NEILL        CLOUDY    69  54  59 S5        29.60R
ORD            CLOUDY    68  55  63 W3        29.57R
THEDFORD       CLOUDY    68  52  56 N5        29.62F
$$

NEZ041-046>049-061>064-073>077-083>087-260200-
SOUTH CENTRAL NEBRASKA

CITY           SKY/WX    TMP DP  RH WIND       PRES   REMARKS
GRAND ISLAND   CLOUDY    72  57  59 SE3       29.58R
AURORA         CLOUDY    73  53  50 S3        29.57S
HASTINGS       CLOUDY    73  56  54 SE3       29.58R
HEBRON         CLOUDY    73  58  57 CALM      29.55S
HOLDREGE       CLOUDY    71  53  51 NE9       29.58R
KEARNEY *      CLOUDY    73  52  46 N6        29.58S
YORK           CLOUDY    73  54  49 SW6       29.58R
$$

NEZ011>018-030>034-042>045-260200-
NORTHEAST NEBRASKA

CITY           SKY/WX    TMP DP  RH WIND       PRES   REMARKS
NORFOLK        CLOUDY    72  53  51 SE7       29.57R
ALBION         PTCLDY    70  54  56 SW3       29.57F
BLAIR          MOCLDY    73  53  50 SE7       29.59R
FREMONT        MOCLDY    74  53  46 S7        29.59R
TEKAMAH        MOCLDY    72  55  55 S12       29.57R
WAYNE          CLEAR     73  53  50 S8        29.58R
$$

NEZ050>053-065>068-078-088>093-260200-
SOUTHEAST NEBRASKA

CITY           SKY/WX    TMP DP  RH WIND       PRES   REMARKS
LINCOLN        PTCLDY    72  55  55 S7        29.58R
OMAHA EPPLEY   MOCLDY    74  52  46 S12       29.57R
BEATRICE       PTCLDY    73  56  53 S7        29.57R
FALLS CITY     CLEAR     73  54  51 SE13      29.56R
NEBRASKA CITY  CLEAR     72  49  43 SE7       29.58R
PLATTSMOUTH    PTCLDY    73  53  49 SE8       29.58R
$$

NEZ044-045-051>053-067-260200-
OMAHA AREA

CITY           SKY/WX    TMP DP  RH WIND       PRES   REMARKS
OMAHA EPPLEY   MOCLDY    74  52  46 S12       29.57R
BLAIR          MOCLDY    73  53  50 SE7       29.59R
FREMONT        MOCLDY    74  53  46 S7        29.59R
MILLARD        MOCLDY    75  56  51 SE7       29.58R
OFFUTT AFB     PTCLDY    72  55  56 SE8       29.57R
PLATTSMOUTH    PTCLDY    73  53  49 SE8       29.58R
WAHOO          FAIR      72  52  48 S6        29.59R
$$



USA.gov is the U.S. government's official web portal to all federal, state and local government web resources and services.